Flag for Canada Weather past 2 weeks in Pickering, Ontario, Canada

Now
66 °F

Partly cloudy.


Feels Like: 66 °F
Forecast: 57 / 74 °F
Wind: No wind

Location: Toronto Buttonville

Current Time: Aug 4, 2015 at 10:53:28 PM

Latest Report: Aug 4, 2015 at 10:00 PM


Visibility: 15 mi

Pressure: 29.90 "Hg

Humidity: 88%

Dew point: 63 °F

Location of PickeringLocation

Historic Weather in Pickering — Graph

°F

Pickering temperature yesterday

Maximum temperature yesterday: 79 °F (at 5:00 PM)
Minimum temperature yesterday: 63 °F (at 4:00 AM)
Average temperature yesterday: 70 °F

Past Weeks' High & Low Weather Summary

 TemperatureHumidityPressure
High91 °F (Jul 27, 4:00 PM)94% (Aug 3, 4:00 AM)30.03 "Hg (Aug 3, 4:00 AM)
Low55 °F (Jul 23, 6:00 AM)31% (Jul 30, 6:00 PM)29.59 "Hg (Aug 3, 3:00 AM)
Average74 °F58%29.86 "Hg
* Reported Jul 20 9:00 PM — Aug 4 9:00 PM, Pickering, Weather by CustomWeather, © 2015

Note: Actual official high and low records may vary slightly from our data, if they occured in-between our weather recording intervals... More about our weather records

Advertising

Pickering weather history for previous 24 hours

 ConditionsComfort  
Time TempWeatherWind HumidityBarometerVisibility
9:00 PM
Tue, Aug 4
66 °FBroken clouds.3 mph88%29.90 "Hg15 mi
8:00 PM68 °FPartly sunny.3 mph69%29.88 "Hg15 mi
7:00 PM68 °FBroken clouds.No wind78%29.88 "Hg15 mi
6:00 PM68 °FPartly sunny.5 mph83%29.87 "Hg12 mi
5:00 PM70 °FPartly sunny.9 mph78%29.86 "Hg15 mi
4:50 PM70 °FSprinkles. Partly sunny.13 mph73%29.87 "Hg15 mi
4:00 PM70 °FPartly sunny.6 mph73%29.85 "Hg15 mi
3:47 PM70 °FRain showers. Partly sunny.14 mph69%29.85 "Hg12 mi
3:00 PM75 °FPartly sunny.8 mph47%29.85 "Hg15 mi
2:00 PM75 °FPartly sunny.9 mph47%29.86 "Hg15 mi
1:00 PM73 °FPartly sunny.7 mph53%29.86 "Hg15 mi
12:00 PM70 °FPartly sunny.8 mph64%29.88 "Hg15 mi
11:00 AM72 °FPartly sunny.2 mph61%29.88 "Hg15 mi
10:00 AM70 °FPassing clouds.6 mph60%29.87 "Hg15 mi
9:00 AM68 °FScattered clouds.9 mph69%29.87 "Hg15 mi
8:00 AM64 °FScattered clouds.8 mph73%29.86 "Hg15 mi
7:00 AM63 °FPassing clouds.5 mph77%29.85 "Hg15 mi
6:00 AM61 °FPassing clouds.No wind83%29.84 "Hg15 mi
5:00 AM63 °FPassing clouds.5 mph77%29.82 "Hg15 mi
4:00 AM64 °FPartly cloudy.5 mph68%29.81 "Hg15 mi
3:00 AM64 °FPassing clouds.3 mph73%29.80 "Hg15 mi
2:00 AM63 °FPassing clouds.7 mph77%29.79 "Hg15 mi
1:00 AM66 °FPassing clouds.No wind68%29.78 "Hg15 mi
12:00 AM66 °FPassing clouds.3 mph64%29.79 "Hg15 mi
11:00 PM
Mon, Aug 3
68 °FPassing clouds.6 mph60%29.79 "Hg15 mi
10:00 PM70 °FPassing clouds.6 mph57%29.78 "Hg15 mi
Weather by CustomWeather, © 2015

See weather overviewHow to use our weather pages